Location: *
(37.5724°S, 58.0067°E)
Time: 12:38:08
(UTC+00:00)

In-Cosmos 22 - Visible Passes

Search period start: 16 January 2021 00:00
Search period end: 26 January 2021 00:00
Orbit: 784 x 877 km, 81.2° (Epoch: 16 January)

Date Brightness Start Highest point End Pass type
(mag) Time Alt. Az. Time Alt. Az. Time Alt. Az.
17 Jan 5.5 00:29:20 10° NNE 00:34:31 44° E 00:39:53 10° SSE visible
18 Jan 5.8 00:11:40 10° NNE 00:16:38 35° E 00:21:45 10° SSE visible
18 Jan 6.2 23:54:06 10° NNE 23:58:47 29° E 00:03:35 10° SSE visible
19 Jan 6.4 23:36:39 10° NE 23:40:56 23° E 23:45:19 10° SE visible
20 Jan 6.7 23:19:21 10° NE 23:23:07 19° E 23:26:57 10° SE visible
21 Jan 6.8 23:02:14 10° ENE 23:05:18 15° E 23:08:24 10° SE visible
22 Jan 4.3 00:41:35 10° NNW 00:47:06 62° W 00:52:49 10° S visible
22 Jan 6.9 22:45:33 10° ENE 22:47:31 12° E 22:49:29 10° ESE visible
23 Jan 4.2 00:23:33 10° NNW 00:29:08 77° W 00:34:56 10° S visible
24 Jan 4.3 00:05:35 10° N 00:11:11 86° E 00:17:00 10° S visible
24 Jan 4.5 23:47:41 10° N 23:53:15 70° E 23:59:01 10° SSE visible
25 Jan 4.8 23:30:01 11° N 23:35:20 57° E 23:41:01 10° SSE visible
